Regional Weather Roundup
Issued by NWS

Home | Current Version | Previous Version | Graphics & Text | Print | Product List | Glossary Off
Versions: 1 2 3 4 5 6 7 8 9 10 11 12 13 14 15 16 17 18 19 20 21 22 23 24 25 26 27 28 29 30 31 32 33 34 35 36 37 38 39 40 41 42 43 44 45 46 47 48 49 50

000
ASUS43 KMKX 200820
RWRWI

WISCONSIN REGIONAL WEATHER ROUNDUP
NATIONAL WEATHER SERVICE MILWAUKEE/SULLIVAN WI
200 AM CST MON NOV 20 2017

NOTE: "FAIR" INDICATES FEW OR NO CLOUDS BELOW 12,000 FEET WITH NO
SIGNIFICANT WEATHER AND/OR OBSTRUCTIONS TO VISIBILITY.

WIZ001-002-006>008-014>016-023>028-200900-
NORTHWEST WISCONSIN

CITY           SKY/WX    TMP DP  RH WIND       PRES   REMARKS
SUPERIOR ARPT  CLOUDY    18  16  92 CALM      29.77R
ASHLAND        CLEAR     16  13  88 CALM      29.77F
HAYWARD        CLEAR     17  14  88 CALM      29.75F
SIREN          CLEAR     20  17  88 CALM      29.75F
CUMBERLAND     CLEAR     23  19  86 CALM      29.76F
RICE LAKE      CLEAR     22  19  91 CALM      29.78F
CHETEK         CLEAR     19  17  92 CALM      29.77F
LADYSMITH      CLEAR     22  20  89 SE5       29.79S WCI  16
EAU CLAIRE     CLEAR     21  18  88 CALM      29.78F
MENOMONIE      CLEAR     25  23  92 E3        29.78F
NEW RICHMOND   CLEAR     31  25  79 S3        29.76F
OSCEOLA        CLEAR     28  24  86 SE3       29.78F
$$

WIZ003>005-009-010-017-018-200900-
NORTH CENTRAL WISCONSIN

CITY           SKY/WX    TMP DP  RH WIND       PRES   REMARKS
MANITOWISH WTR PTCLDY    13  13 100 CALM      29.77S
ARBOR VITAE    CLEAR     17  15  91 CALM      29.77S
WOODRUFF       CLEAR     17  15  91 CALM      29.77S
RHINELANDER    CLEAR    N/A N/A N/A SW3       29.78F
EAGLE RIVER    CLEAR     13  12  97 CALM      29.77S
LAND O LAKES   PTCLDY    12  10  91 CALM      29.79S
PHILLIPS       CLOUDY    20  19  93 S3        29.76S
TOMAHAWK       CLEAR     15  13  92 CALM      29.79S
MEDFORD        CLEAR     23  20  89 S5        29.78F WCI  17
MERRILL        CLEAR     17  15  93 CALM      29.81S
$$

WIZ029-030-035-036-043>047-200900-
CENTRAL WISCONSIN

CITY           SKY/WX    TMP DP  RH WIND       PRES   REMARKS
WAUSAU         CLEAR     26  20  77 SW7       29.81S WCI  18
MOSINEE        CLEAR     21  19  93 S6        29.83S WCI  14
MARSHFIELD     CLEAR     24  19  81 CALM      29.80F
STEVENS POINT  CLEAR     19  18  96 CALM      29.84S
WAUPACA        PTCLDY    26  20  79 CALM      29.86F
WAUTOMA        CLEAR     18  15  88 CALM      29.88S
WISC RAPIDS    CLEAR     22  19  89 S3        29.85F
CAMP DOUGLAS   CLEAR    N/A N/A N/A SW5       29.86S
$$

WIZ011>013-019>022-031-037>040-048>050-200900-
NORTHEAST WISCONSIN

CITY           SKY/WX    TMP DP  RH WIND       PRES   REMARKS
ANTIGO         CLEAR     19  17  89 S5        29.81S WCI  13
SHAWANO        PTCLDY    26  20  77 CALM      29.85F
OCONTO         CLOUDY    24  19  80 CALM      29.86F
STURGEON BAY   MOCLDY    28  21  75 S6        29.88S WCI  22
GREEN BAY      PTCLDY    29  24  82 SW6       29.87F WCI  23
MANITOWOC      PTCLDY    30  23  75 SW8       29.89F WCI  22
APPLETON       CLEAR     28  21  74 SW8       29.85S WCI  20
CLINTONVILLE   CLEAR     27  19  74 SW3       29.85F
OSHKOSH        CLEAR     29  22  75 SW9       29.87F WCI  20
$$

WIZ032>034-041-042-053>061-200900-
SOUTHWEST WISCONSIN

CITY           SKY/WX    TMP DP  RH WIND       PRES   REMARKS
LA CROSSE      CLEAR     35  26  69 S10       29.86R WCI  27
SPARTA         CLEAR     21  20  95 E5        29.87S WCI  15
VIROQUA        CLEAR     32  27  80 S6        29.85S WCI  26
BOSCOBEL       CLOUDY    27  22  81 CALM      29.90F
PRAIRIE DU CHI CLOUDY    36  24  63 CALM      29.89F
PLATTEVILLE    CLOUDY    30  27  88 S8        29.91F WCI  22
$$

WIZ056-057-062-063-064-067-068-200900-
SOUTH CENTRAL WISCONSIN

CITY           SKY/WX    TMP DP  RH WIND       PRES   REMARKS
REEDSBURG      CLEAR     31  23  72 CALM      29.88S
BARABOO/DELLS  CLEAR     33  23  69 W7        29.88R WCI  26
LONE ROCK      CLOUDY    28  22  78 CALM      29.91S
MINERAL POINT  CLOUDY    32  28  86 S7        29.90F WCI  26
MADISON        CLEAR     33  24  69 S9        29.90F WCI  25
MIDDLETON      CLEAR     34  25  69 SW9       29.90F WCI  26
WATERTOWN      CLEAR     28  24  86 S5        29.92S WCI  22
MONROE         CLOUDY    30  25  80 SW15      29.92F WCI  19
JANESVILLE     CLOUDY    30  25  80 S8        29.95S WCI  23
$$

WIZ051-052-058>065-066-070>072-200900-
SOUTHEAST WISCONSIN

CITY           SKY/WX    TMP DP  RH WIND       PRES   REMARKS
MILWAUKEE      PTCLDY    31  23  72 SW10      29.95F WCI  22
WAUKESHA       CLEAR     30  21  69 S6        29.95S WCI  24
MILWAUKEE/TIMM CLEAR     30  19  64 SW7       29.95S WCI  23
RACINE         CLEAR     31  23  72 SW9       29.97F WCI  23
BURLINGTON     CLEAR     30  27  90 SW7       29.96R WCI  23
KENOSHA        CLEAR     32  22  66 SW9       29.97F WCI  24
FOND DU LAC    CLEAR     30  21  69 SW13      29.89S WCI  20
SHEBOYGAN      CLEAR     32  23  69 SW9       29.90F WCI  24
WEST BEND      CLEAR     30  21  69 SW3       29.92S
JUNEAU         CLEAR     27  22  82 S5        29.93R WCI  21
$$

LSZ147-162-200900-
LAKE SUPERIOR

STATION/POSITION TIME  TEMP    WIND        PRES    WAVE
                       AIR SEA DIR/SP/G            HT/PER
                 (UTC) (F)     (DEG/KT/KT) (MB)    (FT/S)
DEVILS ISLAND    0800   31     150/  5/  6 1008.8F
SAXON HARBOR     0730   23     180/  1/  2 1008.1F
$$

LMZ867-665-643>646-200900-
LAKE MICHIGAN

STATION/POSITION TIME  TEMP    WIND        PRES    WAVE
                       AIR SEA DIR/SP/G            HT/PER
                 (UTC) (F)     (DEG/KT/KT) (MB)    (FT/S)
N MID LAKE BUOY  0750   36 48  270/ 14/ 16 1012.4S   3/ 4
NORTHPORT PIER   0740   32     250/  2/  5 1011.5S
KEWAUNEE LAKESHO 0754   30     220/  3/  5 1011.1F
SHEBOYGAN LAKESH 0800   33     240/ 14/ 16 1013.1F
PORT WASHINGTON  0740   32     250/ 10/ 15 1014.2F
MILWAUKEE LAKESH 0800   33     240/ 15/ 17   N/A
S MID LAKE BUOY  0750   40 49  270/ 21/ 25 1015.1F   6/ 6
KENOSHA   LAKESH 0800   33     230/ 10/ 16 1014.9
$$

TC  - TEMPERATURE IN CELSIUS
VSB - VISIBILITY IN STATUTE MILES
WCI - WIND CHILL INDEX
HX  - HEAT INDEX




USA.gov is the U.S. government's official web portal to all federal, state and local government web resources and services.